Regional Weather Roundup
Issued by NWS

Home | Current Version | Previous Version | Text Only | Print | Product List | Glossary Off
Versions: 1 2 3 4 5 6 7 8 9 10 11 12 13 14 15 16 17 18 19 20 21 22 23 24 25 26 27 28 29 30 31 32 33 34 35 36 37 38 39 40 41 42 43 44 45 46 47 48 49 50

000
ASUS43 KLSX 202059
RWRMO

WEATHER SUMMARY FOR MISSOURI
NATIONAL WEATHER SERVICE SPRINGFIELD MO
400 PM CDT SAT SEP 20 2014

NOTE: "FAIR" INDICATES FEW OR NO CLOUDS BELOW 12,000 FEET WITH NO
       SIGNIFICANT WEATHER AND/OR OBSTRUCTIONS TO VISIBILITY.
       CURRENT SKY AND/OR WEATHER CONDITIONS ARE NOT AVAILABLE FOR
       CHILLICOTHE AND FARMINGTON.

MOZ001>031-035>038-043-044-053-054-202200-
...NORTHERN AND WESTERN MISSOURI...

CITY           SKY/WX    TMP DP  RH WIND       PRES   REMARKS
KANSAS CTY INT CLOUDY    78  71  79 SW6       29.94R
KANSAS C DTWN  CLOUDY    83  69  62 SW8       29.92R
LEE`S SUMMIT   CLOUDY    82  70  66 SW8       29.94F
ST JOSEPH      PTSUNNY   83  71  67 W12       29.91F
KIRKSVILLE     PTSUNNY   77  70  79 NW8       29.93F

$$
MOZ066>068-077>081-088>096-101>105-202200-
...SOUTHWEST MISSOURI...

CITY           SKY/WX    TMP DP  RH WIND       PRES   REMARKS
SPRINGFIELD    MOSUNNY   84  68  58 SW10      29.98F
JOPLIN         MOSUNNY   84  70  62 SW16      29.98F

$$
MOZ032>034-039>042-045>050-055>058-069>072-202200-
...CENTRAL MISSOURI...

CITY           SKY/WX    TMP DP  RH WIND       PRES   REMARKS
COLUMBIA       CLOUDY    83  68  60 SW10      29.94F
JEFFERSON CITY PTSUNNY   84  67  56 S10       29.92F
ROLLA          MOSUNNY   83  66  56 W12       29.97R
SEDALIA        CLOUDY    82  70  66 SW8       29.95F
OSAGE BEACH    MOSUNNY   84  66  54 W8        29.97R

$$
MOZ051-052-059>065-202200-
...EAST CENTRAL MISSOURI...

CITY           SKY/WX    TMP DP  RH WIND       PRES   REMARKS
ST LOUIS INTL  CLOUDY    87  68  52 W10       29.93S HX  90
SPIRIT OF STL  CLOUDY    84  69  60 SW8       29.92S
ST CHARLES     CLOUDY    86  68  54 W12       29.92R

$$
MOZ072>076-082>087-097>100-106>115-202200-
...SOUTH CENTRAL AND SOUTHEAST MISSOURI...

CITY           SKY/WX    TMP DP  RH WIND       PRES   REMARKS
CAPE GIRARDEAU PTSUNNY   84  69  60 S10       29.96F
FARMINGTON     SUNNY     84  66  54 SW12G17   29.98F
POPLAR BLUFF   PTSUNNY   86  66  51 SW9       29.96F
WEST PLAINS    MOSUNNY   84  67  56 SW8       30.01F

$$


USA.gov is the U.S. government's official web portal to all federal, state and local government web resources and services.